Location: Bourg-d�Oueil
(42.8588°N, 0.4991°E)
Time: 17:00:53
(UTC+00:00)

SJ 16-02 - Pass Details

Date: 16 June 2021
Orbit: 606 x 616 km, 75.0° (Epoch: 04 August)

Event Time Altitude Azimuth Distance (km) Brightness Sun altitude
Rises 23:49:38 0° 350° (N) 2,874 6.2 -23.7°
Reaches altitude 10° 23:52:07 10° 1° (N) 1,964 5.0 -23.7°
Maximum altitude 23:55:59 30° 63° (ENE) 1,098 2.8 -23.8°
Enters shadow 23:57:07 26° 92° (E) 1,196 2.8 -23.8°
